;Strom_Lastverlauf_�bernahme_aus_HS_2013
Di.01.01.2013 00:15;0
Di.01.01.2013 00:30;0
Di.01.01.2013 00:45;0
Di.01.01.2013 01:00;0
Di.01.01.2013 01:15;0
Di.01.01.2013 01:30;0
Di.01.01.2013 01:45;0
Di.01.01.2013 02:00;0
Di.01.01.2013 02:15;0
Di.01.01.2013 02:30;0
Di.01.01.2013 02:45;0
Di.01.01.2013 03:00;0
Di.01.01.2013 03:15;0
Di.01.01.2013 03:30;0
Di.01.01.2013 03:45;0
Di.01.01.2013 04:00;0
Di.01.01.2013 04:15;0
Di.01.01.2013 04:30;0
Di.01.01.2013 04:45;0
Di.01.01.2013 05:00;0
Di.01.01.2013 05:15;0
Di.01.01.2013 05:30;0
Di.01.01.2013 05:45;0
Di.01.01.2013 06:00;0
Di.01.01.2013 06:15;0
Di.01.01.2013 06:30;0
Di.01.01.2013 06:45;0
Di.01.01.2013 07:00;0
Di.01.01.2013 07:15;0
Di.01.01.2013 07:30;0
Di.01.01.2013 07:45;0
Di.01.01.2013 08:00;0
Di.01.01.2013 08:15;0
Di.01.01.2013 08:30;0
Di.01.01.2013 08:45;0
Di.01.01.2013 09:00;0
Di.01.01.2013 09:15;0
Di.01.01.2013 09:30;0
Di.01.01.2013 09:45;1425,6
Di.01.01.2013 10:00;3271,4
Di.01.01.2013 10:15;2536,6
Di.01.01.2013 10:30;0
Di.01.01.2013 10:45;0
Di.01.01.2013 11:00;0
Di.01.01.2013 11:15;3139,4
Di.01.01.2013 11:30;5676
Di.01.01.2013 11:45;5280
Di.01.01.2013 12:00;7801,2
Di.01.01.2013 12:15;8516,2
Di.01.01.2013 12:30;9537
Di.01.01.2013 12:45;9240
Di.01.01.2013 13:00;9631,6
Di.01.01.2013 13:15;11622,6
Di.01.01.2013 13:30;12854,6
Di.01.01.2013 13:45;10219
Di.01.01.2013 14:00;13433,2
Di.01.01.2013 14:15;17333,8
Di.01.01.2013 14:30;20185
Di.01.01.2013 14:45;18744
Di.01.01.2013 15:00;14766,4
Di.01.01.2013 15:15;14814,8
Di.01.01.2013 15:30;14894
Di.01.01.2013 15:45;12368,4
Di.01.01.2013 16:00;11635,8
Di.01.01.2013 16:15;13052,6
Di.01.01.2013 16:30;10505
Di.01.01.2013 16:45;0
Di.01.01.2013 17:00;0
Di.01.01.2013 17:15;0
Di.01.01.2013 17:30;0
Di.01.01.2013 17:45;0
Di.01.01.2013 18:00;12579,6
Di.01.01.2013 18:15;22099
Di.01.01.2013 18:30;19553,6
Di.01.01.2013 18:45;27733,2
Di.01.01.2013 19:00;14922,6
Di.01.01.2013 19:15;8637,2
Di.01.01.2013 19:30;14665,2
Di.01.01.2013 19:45;6646,2
Di.01.01.2013 20:00;0
Di.01.01.2013 20:15;0
Di.01.01.2013 20:30;0
Di.01.01.2013 20:45;0
Di.01.01.2013 21:00;0
Di.01.01.2013 21:15;0
Di.01.01.2013 21:30;0
Di.01.01.2013 21:45;0
Di.01.01.2013 22:00;1456,4
Di.01.01.2013 22:15;8382
Di.01.01.2013 22:30;14306,6
Di.01.01.2013 22:45;15862
Di.01.01.2013 23:00;11424,6
Di.01.01.2013 23:15;6965,2
Di.01.01.2013 23:30;4316,4
Di.01.01.2013 23:45;1394,8
Mi.02.01.2013 00:00;0
Mi.02.01.2013 00:15;0
Mi.02.01.2013 00:30;0
Mi.02.01.2013 00:45;35,2
Mi.02.01.2013 01:00;1460,8
Mi.02.01.2013 01:15;4928
Mi.02.01.2013 01:30;3495,8
Mi.02.01.2013 01:45;3058
Mi.02.01.2013 02:00;6006
Mi.02.01.2013 02:15;6036,8
Mi.02.01.2013 02:30;5698
Mi.02.01.2013 02:45;7502
Mi.02.01.2013 03:00;4804,8
Mi.02.01.2013 03:15;0
Mi.02.01.2013 03:30;0
Mi.02.01.2013 03:45;0
Mi.02.01.2013 04:00;0
Mi.02.01.2013 04:15;0
Mi.02.01.2013 04:30;0
Mi.02.01.2013 04:45;0
Mi.02.01.2013 05:00;0
Mi.02.01.2013 05:15;0
Mi.02.01.2013 05:30;0
Mi.02.01.2013 05:45;0
Mi.02.01.2013 06:00;5115
Mi.02.01.2013 06:15;8727,4
Mi.02.01.2013 06:30;8186,2
Mi.02.01.2013 06:45;11059,4
Mi.02.01.2013 07:00;13356,2
Mi.02.01.2013 07:15;17916,8
Mi.02.01.2013 07:30;22118,8
Mi.02.01.2013 07:45;28505,4
Mi.02.01.2013 08:00;30830,8
Mi.02.01.2013 08:15;33459,8
Mi.02.01.2013 08:30;34361,8
Mi.02.01.2013 08:45;42939,6
Mi.02.01.2013 09:00;45909,6
Mi.02.01.2013 09:15;44085,8
Mi.02.01.2013 09:30;43102,4
Mi.02.01.2013 09:45;41637,2
Mi.02.01.2013 10:00;42446,8
Mi.02.01.2013 10:15;45023
Mi.02.01.2013 10:30;43841,6
Mi.02.01.2013 10:45;45799,6
Mi.02.01.2013 11:00;42779
Mi.02.01.2013 11:15;35323,2
Mi.02.01.2013 11:30;37446,2
Mi.02.01.2013 11:45;44451
Mi.02.01.2013 12:00;46901,8
Mi.02.01.2013 12:15;50437,2
Mi.02.01.2013 12:30;48195,4
Mi.02.01.2013 12:45;50899,2
Mi.02.01.2013 13:00;49167,8
Mi.02.01.2013 13:15;48153,6
Mi.02.01.2013 13:30;46820,4
Mi.02.01.2013 13:45;52342,4
Mi.02.01.2013 14:00;49935,6
Mi.02.01.2013 14:15;48019,4
Mi.02.01.2013 14:30;52243,4
Mi.02.01.2013 14:45;54454,4
Mi.02.01.2013 15:00;55994,4
Mi.02.01.2013 15:15;59664
Mi.02.01.2013 15:30;59054,6
Mi.02.01.2013 15:45;56537,8
Mi.02.01.2013 16:00;60121,6
Mi.02.01.2013 16:15;64167,4
Mi.02.01.2013 16:30;64290,6
Mi.02.01.2013 16:45;62321,6
Mi.02.01.2013 17:00;66228,8
Mi.02.01.2013 17:15;70050,2
Mi.02.01.2013 17:30;67969
Mi.02.01.2013 17:45;64831,8
Mi.02.01.2013 18:00;63940,8
Mi.02.01.2013 18:15;66440
Mi.02.01.2013 18:30;69557,4
Mi.02.01.2013 18:45;70725,6
Mi.02.01.2013 19:00;69542
Mi.02.01.2013 19:15;67370,6
Mi.02.01.2013 19:30;66803
Mi.02.01.2013 19:45;65186
Mi.02.01.2013 20:00;62271
Mi.02.01.2013 20:15;61201,8
Mi.02.01.2013 20:30;59305,4
Mi.02.01.2013 20:45;55737
Mi.02.01.2013 21:00;49438,4
Mi.02.01.2013 21:15;53059,6
Mi.02.01.2013 21:30;54076
Mi.02.01.2013 21:45;53336,8
Mi.02.01.2013 22:00;49198,6
Mi.02.01.2013 22:15;48598
Mi.02.01.2013 22:30;44433,4
Mi.02.01.2013 22:45;42427
Mi.02.01.2013 23:00;38940
Mi.02.01.2013 23:15;35226,4
Mi.02.01.2013 23:30;35059,2
Mi.02.01.2013 23:45;37844,4
Do.03.01.2013 00:00;35989,8
Do.03.01.2013 00:15;35356,2
Do.03.01.2013 00:30;33378,4
Do.03.01.2013 00:45;27616,6
Do.03.01.2013 01:00;26551,8
Do.03.01.2013 01:15;25643,2
Do.03.01.2013 01:30;22391,6
Do.03.01.2013 01:45;17272,2
Do.03.01.2013 02:00;13008,6
Do.03.01.2013 02:15;14218,6
Do.03.01.2013 02:30;9607,4
Do.03.01.2013 02:45;9231,2
Do.03.01.2013 03:00;14121,8
Do.03.01.2013 03:15;11717,2
Do.03.01.2013 03:30;8830,8
Do.03.01.2013 03:45;11598,4
Do.03.01.2013 04:00;10425,8
Do.03.01.2013 04:15;9119
Do.03.01.2013 04:30;4039,2
Do.03.01.2013 04:45;1757,8
Do.03.01.2013 05:00;83,6
Do.03.01.2013 05:15;5856,4
Do.03.01.2013 05:30;10115,6
Do.03.01.2013 05:45;10436,8
Do.03.01.2013 06:00;10359,8
Do.03.01.2013 06:15;2879,8
Do.03.01.2013 06:30;0
Do.03.01.2013 06:45;0
Do.03.01.2013 07:00;0
Do.03.01.2013 07:15;0
Do.03.01.2013 07:30;1636,8
Do.03.01.2013 07:45;3575
Do.03.01.2013 08:00;16060
Do.03.01.2013 08:15;18073
Do.03.01.2013 08:30;15540,8
Do.03.01.2013 08:45;12896,4
Do.03.01.2013 09:00;6855,2
Do.03.01.2013 09:15;11270,6
Do.03.01.2013 09:30;16423
Do.03.01.2013 09:45;16002,8
Do.03.01.2013 10:00;25660,8
Do.03.01.2013 10:15;33541,2
Do.03.01.2013 10:30;35761
Do.03.01.2013 10:45;32551,2
Do.03.01.2013 11:00;33248,6
Do.03.01.2013 11:15;30247,8
Do.03.01.2013 11:30;33279,4
Do.03.01.2013 11:45;37037
Do.03.01.2013 12:00;32359,8
Do.03.01.2013 12:15;30373,2
Do.03.01.2013 12:30;29997
Do.03.01.2013 12:45;23949,2
Do.03.01.2013 13:00;21188,2
Do.03.01.2013 13:15;21357,6
Do.03.01.2013 13:30;16506,6
Do.03.01.2013 13:45;14766,4
Do.03.01.2013 14:00;18759,4
Do.03.01.2013 14:15;27108,4
Do.03.01.2013 14:30;36434,2
Do.03.01.2013 14:45;34236,4
Do.03.01.2013 15:00;33268,4
Do.03.01.2013 15:15;33336,6
Do.03.01.2013 15:30;28672,6
Do.03.01.2013 15:45;25938
Do.03.01.2013 16:00;24697,2
Do.03.01.2013 16:15;18977,2
Do.03.01.2013 16:30;23830,4
Do.03.01.2013 16:45;24983,2
Do.03.01.2013 17:00;31627,2
Do.03.01.2013 17:15;34476,2
Do.03.01.2013 17:30;33552,2
Do.03.01.2013 17:45;39586,8
Do.03.01.2013 18:00;38907
Do.03.01.2013 18:15;33574,2
Do.03.01.2013 18:30;29099,4
Do.03.01.2013 18:45;22490,6
Do.03.01.2013 19:00;21599,6
Do.03.01.2013 19:15;26100,8
Do.03.01.2013 19:30;33844,8
Do.03.01.2013 19:45;38016
Do.03.01.2013 20:00;33866,8
Do.03.01.2013 20:15;27420,8
Do.03.01.2013 20:30;25968,8
Do.03.01.2013 20:45;24873,2
Do.03.01.2013 21:00;20814,2
Do.03.01.2013 21:15;17283,2
Do.03.01.2013 21:30;20930,8
Do.03.01.2013 21:45;18640,6
Do.03.01.2013 22:00;18339,2
Do.03.01.2013 22:15;19764,8
Do.03.01.2013 22:30;9752,6
Do.03.01.2013 22:45;7722
Do.03.01.2013 23:00;0
Do.03.01.2013 23:15;0
Do.03.01.2013 23:30;1042,8
Do.03.01.2013 23:45;3654,2
Fr.04.01.2013 00:00;0
Fr.04.01.2013 00:15;0
Fr.04.01.2013 00:30;0
Fr.04.01.2013 00:45;0
Fr.04.01.2013 01:00;0
Fr.04.01.2013 01:15;0
Fr.04.01.2013 01:30;0
Fr.04.01.2013 01:45;0
Fr.04.01.2013 02:00;0
Fr.04.01.2013 02:15;0
Fr.04.01.2013 02:30;0
Fr.04.01.2013 02:45;0
Fr.04.01.2013 03:00;0
Fr.04.01.2013 03:15;0
Fr.04.01.2013 03:30;0
Fr.04.01.2013 03:45;0
Fr.04.01.2013 04:00;0
Fr.04.01.2013 04:15;0
Fr.04.01.2013 04:30;0
Fr.04.01.2013 04:45;0
Fr.04.01.2013 05:00;0
Fr.04.01.2013 05:15;0
Fr.04.01.2013 05:30;1289,2
Fr.04.01.2013 05:45;6547,2
Fr.04.01.2013 06:00;5282,2
Fr.04.01.2013 06:15;6472,4
Fr.04.01.2013 06:30;9979,2
Fr.04.01.2013 06:45;14429,8
Fr.04.01.2013 07:00;19800
Fr.04.01.2013 07:15;33435,6
Fr.04.01.2013 07:30;40486,6
Fr.04.01.2013 07:45;42803,2
Fr.04.01.2013 08:00;47579,4
Fr.04.01.2013 08:15;52467,8
Fr.04.01.2013 08:30;49205,2
Fr.04.01.2013 08:45;40519,6
Fr.04.01.2013 09:00;39919
Fr.04.01.2013 09:15;44101,2
Fr.04.01.2013 09:30;40640,6
Fr.04.01.2013 09:45;25667,4
Fr.04.01.2013 10:00;19131,2
Fr.04.01.2013 10:15;17410,8
Fr.04.01.2013 10:30;10632,6
Fr.04.01.2013 10:45;7904,6
Fr.04.01.2013 11:00;6901,4
Fr.04.01.2013 11:15;4118,4
Fr.04.01.2013 11:30;4534,2
Fr.04.01.2013 11:45;4642
Fr.04.01.2013 12:00;305,8
Fr.04.01.2013 12:15;0
Fr.04.01.2013 12:30;0
Fr.04.01.2013 12:45;0
Fr.04.01.2013 13:00;118,8
Fr.04.01.2013 13:15;0
Fr.04.01.2013 13:30;0
Fr.04.01.2013 13:45;0
Fr.04.01.2013 14:00;0
Fr.04.01.2013 14:15;0
Fr.04.01.2013 14:30;0
Fr.04.01.2013 14:45;0
Fr.04.01.2013 15:00;0
Fr.04.01.2013 15:15;0
Fr.04.01.2013 15:30;0
Fr.04.01.2013 15:45;0
Fr.04.01.2013 16:00;0
Fr.04.01.2013 16:15;0
Fr.04.01.2013 16:30;0
Fr.04.01.2013 16:45;0
Fr.04.01.2013 17:00;0
Fr.04.01.2013 17:15;776,6
Fr.04.01.2013 17:30;0
Fr.04.01.2013 17:45;0
Fr.04.01.2013 18:00;0
Fr.04.01.2013 18:15;0
Fr.04.01.2013 18:30;0
Fr.04.01.2013 18:45;1053,8
Fr.04.01.2013 19:00;0
Fr.04.01.2013 19:15;0
Fr.04.01.2013 19:30;0
Fr.04.01.2013 19:45;0
Fr.04.01.2013 20:00;1784,2
Fr.04.01.2013 20:15;1650
Fr.04.01.2013 20:30;0
Fr.04.01.2013 20:45;0
Fr.04.01.2013 21:00;0
Fr.04.01.2013 21:15;0
Fr.04.01.2013 21:30;0
Fr.04.01.2013 21:45;0
Fr.04.01.2013 22:00;0
Fr.04.01.2013 22:15;0
Fr.04.01.2013 22:30;0
Fr.04.01.2013 22:45;0
Fr.04.01.2013 23:00;0
Fr.04.01.2013 23:15;0
Fr.04.01.2013 23:30;0
Fr.04.01.2013 23:45;0
Sa.05.01.2013 00:00;0
Sa.05.01.2013 00:15;0
Sa.05.01.2013 00:30;0
Sa.05.01.2013 00:45;0
Sa.05.01.2013 01:00;0
Sa.05.01.2013 01:15;0
Sa.05.01.2013 01:30;0
Sa.05.01.2013 01:45;0
Sa.05.01.2013 02:00;0
Sa.05.01.2013 02:15;0
Sa.05.01.2013 02:30;0
Sa.05.01.2013 02:45;0
Sa.05.01.2013 03:00;0
Sa.05.01.2013 03:15;0
Sa.05.01.2013 03:30;0
Sa.05.01.2013 03:45;0
Sa.05.01.2013 04:00;0
Sa.05.01.2013 04:15;0
Sa.05.01.2013 04:30;0
Sa.05.01.2013 04:45;0
Sa.05.01.2013 05:00;0
Sa.05.01.2013 05:15;0
Sa.05.01.2013 05:30;0
Sa.05.01.2013 05:45;0
Sa.05.01.2013 06:00;0
Sa.05.01.2013 06:15;0
Sa.05.01.2013 06:30;0
Sa.05.01.2013 06:45;0
Sa.05.01.2013 07:00;0
Sa.05.01.2013 07:15;0
Sa.05.01.2013 07:30;0
Sa.05.01.2013 07:45;0
Sa.05.01.2013 08:00;0
Sa.05.01.2013 08:15;0
Sa.05.01.2013 08:30;0
Sa.05.01.2013 08:45;0
Sa.05.01.2013 09:00;0
Sa.05.01.2013 09:15;0
Sa.05.01.2013 09:30;0
Sa.05.01.2013 09:45;0
Sa.05.01.2013 10:00;0
Sa.05.01.2013 10:15;0
Sa.05.01.2013 10:30;0
Sa.05.01.2013 10:45;0
Sa.05.01.2013 11:00;0
Sa.05.01.2013 11:15;0
Sa.05.01.2013 11:30;0
Sa.05.01.2013 11:45;0
Sa.05.01.2013 12:00;5057,8
Sa.05.01.2013 12:15;7383,2
Sa.05.01.2013 12:30;6644
Sa.05.01.2013 12:45;7913,4
Sa.05.01.2013 13:00;7741,8
Sa.05.01.2013 13:15;1718,2
Sa.05.01.2013 13:30;0
Sa.05.01.2013 13:45;0
Sa.05.01.2013 14:00;783,2
Sa.05.01.2013 14:15;0
Sa.05.01.2013 14:30;2435,4
Sa.05.01.2013 14:45;3374,8
Sa.05.01.2013 15:00;2772
Sa.05.01.2013 15:15;4298,8
Sa.05.01.2013 15:30;5398,8
Sa.05.01.2013 15:45;4738,8
Sa.05.01.2013 16:00;7616,4
Sa.05.01.2013 16:15;11477,4
Sa.05.01.2013 16:30;18255,6
Sa.05.01.2013 16:45;27689,2
Sa.05.01.2013 17:00;37155,8
Sa.05.01.2013 17:15;35417,8
Sa.05.01.2013 17:30;28606,6
Sa.05.01.2013 17:45;24290,2
Sa.05.01.2013 18:00;26600,2
Sa.05.01.2013 18:15;27016
Sa.05.01.2013 18:30;28760,6
Sa.05.01.2013 18:45;23744,6
Sa.05.01.2013 19:00;20094,8
Sa.05.01.2013 19:15;17949,8
Sa.05.01.2013 19:30;14396,8
Sa.05.01.2013 19:45;15930,2
Sa.05.01.2013 20:00;19610,8
Sa.05.01.2013 20:15;17523
Sa.05.01.2013 20:30;22910,8
Sa.05.01.2013 20:45;34628
Sa.05.01.2013 21:00;33985,6
Sa.05.01.2013 21:15;32326,8
Sa.05.01.2013 21:30;33226,6
Sa.05.01.2013 21:45;36775,2
Sa.05.01.2013 22:00;39074,2
Sa.05.01.2013 22:15;41080,6
Sa.05.01.2013 22:30;45661
Sa.05.01.2013 22:45;46501,4
Sa.05.01.2013 23:00;42385,2
Sa.05.01.2013 23:15;43568,8
Sa.05.01.2013 23:30;45515,8
Sa.05.01.2013 23:45;42688,8
So.06.01.2013 00:00;38467
So.06.01.2013 00:15;27449,4
So.06.01.2013 00:30;15210,8
So.06.01.2013 00:45;10419,2
So.06.01.2013 01:00;13752,2
So.06.01.2013 01:15;11222,2
So.06.01.2013 01:30;5678,2
So.06.01.2013 01:45;10439
So.06.01.2013 02:00;13151,6
So.06.01.2013 02:15;23757,8
So.06.01.2013 02:30;31066,2
So.06.01.2013 02:45;18486,6
So.06.01.2013 03:00;15129,4
So.06.01.2013 03:15;13274,8
So.06.01.2013 03:30;15353,8
So.06.01.2013 03:45;10412,6
So.06.01.2013 04:00;12865,6
So.06.01.2013 04:15;8448
So.06.01.2013 04:30;17017
So.06.01.2013 04:45;20017,8
So.06.01.2013 05:00;9457,8
So.06.01.2013 05:15;3660,8
So.06.01.2013 05:30;7788
So.06.01.2013 05:45;5110,6
So.06.01.2013 06:00;0
So.06.01.2013 06:15;0
So.06.01.2013 06:30;0
So.06.01.2013 06:45;0
So.06.01.2013 07:00;0
So.06.01.2013 07:15;0
So.06.01.2013 07:30;0
So.06.01.2013 07:45;0
So.06.01.2013 08:00;0
So.06.01.2013 08:15;974,6
So.06.01.2013 08:30;11090,2
So.06.01.2013 08:45;14856,6
So.06.01.2013 09:00;20198,2
So.06.01.2013 09:15;18136,8
So.06.01.2013 09:30;15835,6
So.06.01.2013 09:45;17701,2
So.06.01.2013 10:00;13853,4
So.06.01.2013 10:15;24695
So.06.01.2013 10:30;20114,6
So.06.01.2013 10:45;16691,4
So.06.01.2013 11:00;13723,6
So.06.01.2013 11:15;16383,4
So.06.01.2013 11:30;18574,6
So.06.01.2013 11:45;13248,4
So.06.01.2013 12:00;17494,4
So.06.01.2013 12:15;20433,6
So.06.01.2013 12:30;25493,6
So.06.01.2013 12:45;25687,2
So.06.01.2013 13:00;21051,8
So.06.01.2013 13:15;19562,4
So.06.01.2013 13:30;13061,4
So.06.01.2013 13:45;3676,2
So.06.01.2013 14:00;3132,8
So.06.01.2013 14:15;4338,4
So.06.01.2013 14:30;0
So.06.01.2013 14:45;0
So.06.01.2013 15:00;0
So.06.01.2013 15:15;0
So.06.01.2013 15:30;0
So.06.01.2013 15:45;0
So.06.01.2013 16:00;0
So.06.01.2013 16:15;0
So.06.01.2013 16:30;0
So.06.01.2013 16:45;0
So.06.01.2013 17:00;0
So.06.01.2013 17:15;0
So.06.01.2013 17:30;4213
So.06.01.2013 17:45;4925,8
So.06.01.2013 18:00;7909
So.06.01.2013 18:15;12122
So.06.01.2013 18:30;10986,8
So.06.01.2013 18:45;20471
So.06.01.2013 19:00;22998,8
So.06.01.2013 19:15;25322
So.06.01.2013 19:30;24435,4
So.06.01.2013 19:45;21161,8
So.06.01.2013 20:00;15056,8
So.06.01.2013 20:15;13822,6
So.06.01.2013 20:30;13519
So.06.01.2013 20:45;0
So.06.01.2013 21:00;12900,8
So.06.01.2013 21:15;15155,8
So.06.01.2013 21:30;16013,8
So.06.01.2013 21:45;23137,4
So.06.01.2013 22:00;19938,6
So.06.01.2013 22:15;23467,4
So.06.01.2013 22:30;20187,2
So.06.01.2013 22:45;14223
So.06.01.2013 23:00;15884
So.06.01.2013 23:15;17857,4
So.06.01.2013 23:30;13343
So.06.01.2013 23:45;11717,2
Mo.07.01.2013 00:00;6197,4
Mo.07.01.2013 00:15;2701,6
Mo.07.01.2013 00:30;3891,8
Mo.07.01.2013 00:45;3814,8
Mo.07.01.2013 01:00;2349,6
Mo.07.01.2013 01:15;3935,8
Mo.07.01.2013 01:30;8903,4
Mo.07.01.2013 01:45;6652,8
Mo.07.01.2013 02:00;1603,8
Mo.07.01.2013 02:15;90,2
Mo.07.01.2013 02:30;2109,8
Mo.07.01.2013 02:45;354,2
Mo.07.01.2013 03:00;0
Mo.07.01.2013 03:15;0
Mo.07.01.2013 03:30;0
Mo.07.01.2013 03:45;0
Mo.07.01.2013 04:00;0
Mo.07.01.2013 04:15;0
Mo.07.01.2013 04:30;444,4
Mo.07.01.2013 04:45;0
Mo.07.01.2013 05:00;0
Mo.07.01.2013 05:15;2585
Mo.07.01.2013 05:30;11301,4
Mo.07.01.2013 05:45;19951,8
Mo.07.01.2013 06:00;27794,8
Mo.07.01.2013 06:15;26958,8
Mo.07.01.2013 06:30;28025,8
Mo.07.01.2013 06:45;29587,8
Mo.07.01.2013 07:00;34119,8
Mo.07.01.2013 07:15;33215,6
Mo.07.01.2013 07:30;33151,8
Mo.07.01.2013 07:45;39393,2
Mo.07.01.2013 08:00;46915
Mo.07.01.2013 08:15;55906,4
Mo.07.01.2013 08:30;61681,4
Mo.07.01.2013 08:45;63241,2
Mo.07.01.2013 09:00;68378,2
Mo.07.01.2013 09:15;71647,4
Mo.07.01.2013 09:30;72197,4
Mo.07.01.2013 09:45;71022,6
Mo.07.01.2013 10:00;71682,6
Mo.07.01.2013 10:15;70892,8
Mo.07.01.2013 10:30;70815,8
Mo.07.01.2013 10:45;69209,8
Mo.07.01.2013 11:00;71920,2
Mo.07.01.2013 11:15;73433,8
Mo.07.01.2013 11:30;75871,4
Mo.07.01.2013 11:45;78342
Mo.07.01.2013 12:00;78863,4
Mo.07.01.2013 12:15;77732,6
Mo.07.01.2013 12:30;77858
Mo.07.01.2013 12:45;78480,6
Mo.07.01.2013 13:00;77204,6
Mo.07.01.2013 13:15;75125,6
Mo.07.01.2013 13:30;72298,6
Mo.07.01.2013 13:45;71167,8
Mo.07.01.2013 14:00;72019,2
Mo.07.01.2013 14:15;74736,2
Mo.07.01.2013 14:30;77349,8
Mo.07.01.2013 14:45;78507
Mo.07.01.2013 15:00;78269,4
Mo.07.01.2013 15:15;79613,6
Mo.07.01.2013 15:30;79156
Mo.07.01.2013 15:45;80812,6
Mo.07.01.2013 16:00;81261,4
Mo.07.01.2013 16:15;82156,8
Mo.07.01.2013 16:30;83008,2
Mo.07.01.2013 16:45;84108,2
Mo.07.01.2013 17:00;85509,6
Mo.07.01.2013 17:15;88352
Mo.07.01.2013 17:30;89628
Mo.07.01.2013 17:45;89113,2
Mo.07.01.2013 18:00;87524,8
Mo.07.01.2013 18:15;85826,4
Mo.07.01.2013 18:30;85516,2
Mo.07.01.2013 18:45;87612,8
Mo.07.01.2013 19:00;86629,4
Mo.07.01.2013 19:15;84649,4
Mo.07.01.2013 19:30;83166,6
Mo.07.01.2013 19:45;82849,8
Mo.07.01.2013 20:00;80625,6
Mo.07.01.2013 20:15;79226,4
Mo.07.01.2013 20:30;77072,6
Mo.07.01.2013 20:45;73552,6
Mo.07.01.2013 21:00;72349,2
Mo.07.01.2013 21:15;74903,4
Mo.07.01.2013 21:30;72542,8
Mo.07.01.2013 21:45;71143,6
Mo.07.01.2013 22:00;68596
Mo.07.01.2013 22:15;70375,8
Mo.07.01.2013 22:30;69957,8
Mo.07.01.2013 22:45;66653,4
Mo.07.01.2013 23:00;63428,2
Mo.07.01.2013 23:15;61481,2
Mo.07.01.2013 23:30;59859,8
Mo.07.01.2013 23:45;57897,4
Di.08.01.2013 00:00;56529
Di.08.01.2013 00:15;54923
Di.08.01.2013 00:30;52131,2
Di.08.01.2013 00:45;50485,6
Di.08.01.2013 01:00;50600
Di.08.01.2013 01:15;50226
Di.08.01.2013 01:30;48089,8
Di.08.01.2013 01:45;45801,8
Di.08.01.2013 02:00;46118,6
Di.08.01.2013 02:15;49354,8
Di.08.01.2013 02:30;48710,2
Di.08.01.2013 02:45;47392,4
Di.08.01.2013 03:00;47038,2
Di.08.01.2013 03:15;47110,8
Di.08.01.2013 03:30;46688,4
Di.08.01.2013 03:45;44893,2
Di.08.01.2013 04:00;44897,6
Di.08.01.2013 04:15;45564,2
Di.08.01.2013 04:30;45529
Di.08.01.2013 04:45;44365,2
Di.08.01.2013 05:00;44849,2
Di.08.01.2013 05:15;44871,2
Di.08.01.2013 05:30;43322,4
Di.08.01.2013 05:45;47982
Di.08.01.2013 06:00;49438,4
Di.08.01.2013 06:15;51554,8
Di.08.01.2013 06:30;52142,2
Di.08.01.2013 06:45;54430,2
Di.08.01.2013 07:00;58102
Di.08.01.2013 07:15;62447
Di.08.01.2013 07:30;59358,2
Di.08.01.2013 07:45;62988,2
Di.08.01.2013 08:00;62422,8
Di.08.01.2013 08:15;65571
Di.08.01.2013 08:30;70296,6
Di.08.01.2013 08:45;70829
Di.08.01.2013 09:00;66492,8
Di.08.01.2013 09:15;63214,8
Di.08.01.2013 09:30;66431,2
Di.08.01.2013 09:45;64046,4
Di.08.01.2013 10:00;64607,4
Di.08.01.2013 10:15;63107
Di.08.01.2013 10:30;64715,2
Di.08.01.2013 10:45;64572,2
Di.08.01.2013 11:00;68602,6
Di.08.01.2013 11:15;70991,8
Di.08.01.2013 11:30;74943
Di.08.01.2013 11:45;75719,6
Di.08.01.2013 12:00;73752,8
Di.08.01.2013 12:15;72850,8
Di.08.01.2013 12:30;74483,2
Di.08.01.2013 12:45;76153
Di.08.01.2013 13:00;73882,6
Di.08.01.2013 13:15;71258
Di.08.01.2013 13:30;70419,8
Di.08.01.2013 13:45;72052,2
Di.08.01.2013 14:00;67465,2
Di.08.01.2013 14:15;66706,2
Di.08.01.2013 14:30;67207,8
Di.08.01.2013 14:45;65445,6
Di.08.01.2013 15:00;62777
Di.08.01.2013 15:15;61936,6
Di.08.01.2013 15:30;59367
Di.08.01.2013 15:45;64906,6
Di.08.01.2013 16:00;66800,8
Di.08.01.2013 16:15;67095,6
Di.08.01.2013 16:30;66330
Di.08.01.2013 16:45;69889,6
Di.08.01.2013 17:00;70969,8
Di.08.01.2013 17:15;74272
Di.08.01.2013 17:30;76813
Di.08.01.2013 17:45;75471
Di.08.01.2013 18:00;72208,4
Di.08.01.2013 18:15;72991,6
Di.08.01.2013 18:30;74452,4
Di.08.01.2013 18:45;72864
Di.08.01.2013 19:00;69847,8
Di.08.01.2013 19:15;70257
Di.08.01.2013 19:30;70092
Di.08.01.2013 19:45;69372,6
Di.08.01.2013 20:00;70433
Di.08.01.2013 20:15;70558,4
Di.08.01.2013 20:30;68893
Di.08.01.2013 20:45;67302,4
Di.08.01.2013 21:00;64801
Di.08.01.2013 21:15;66646,8
Di.08.01.2013 21:30;62708,8
Di.08.01.2013 21:45;60744,2
Di.08.01.2013 22:00;60506,6
Di.08.01.2013 22:15;61551,6
Di.08.01.2013 22:30;59708
Di.08.01.2013 22:45;59831,2
Di.08.01.2013 23:00;58251,6
Di.08.01.2013 23:15;59780,6
Di.08.01.2013 23:30;58698,2
Di.08.01.2013 23:45;56878,8
Mi.09.01.2013 00:00;54357,6
Mi.09.01.2013 00:15;51763,8
Mi.09.01.2013 00:30;50738,6
Mi.09.01.2013 00:45;48360,4
Mi.09.01.2013 01:00;45702,8
Mi.09.01.2013 01:15;45705
Mi.09.01.2013 01:30;41294
Mi.09.01.2013 01:45;39162,2
Mi.09.01.2013 02:00;35002
Mi.09.01.2013 02:15;37213
Mi.09.01.2013 02:30;37457,2
Mi.09.01.2013 02:45;35347,4
Mi.09.01.2013 03:00;35688,4
Mi.09.01.2013 03:15;35486
Mi.09.01.2013 03:30;34150,6
Mi.09.01.2013 03:45;37021,6
Mi.09.01.2013 04:00;38579,2
Mi.09.01.2013 04:15;37021,6
Mi.09.01.2013 04:30;34060,4
Mi.09.01.2013 04:45;33279,4
Mi.09.01.2013 05:00;35538,8
Mi.09.01.2013 05:15;36984,2
Mi.09.01.2013 05:30;37021,6
Mi.09.01.2013 05:45;41014,6
Mi.09.01.2013 06:00;45159,4
Mi.09.01.2013 06:15;47621,2
Mi.09.01.2013 06:30;51411,8
Mi.09.01.2013 06:45;55726
Mi.09.01.2013 07:00;57301,2
Mi.09.01.2013 07:15;59859,8
Mi.09.01.2013 07:30;62664,8
Mi.09.01.2013 07:45;65883,4
Mi.09.01.2013 08:00;66112,2
Mi.09.01.2013 08:15;70582,6
Mi.09.01.2013 08:30;74833
Mi.09.01.2013 08:45;74474,4
Mi.09.01.2013 09:00;74872,6
Mi.09.01.2013 09:15;74243,4
Mi.09.01.2013 09:30;72025,8
Mi.09.01.2013 09:45;71563,8
Mi.09.01.2013 10:00;70626,6
Mi.09.01.2013 10:15;72991,6
Mi.09.01.2013 10:30;74082,8
Mi.09.01.2013 10:45;73581,2
Mi.09.01.2013 11:00;75673,4
Mi.09.01.2013 11:15;76676,6
Mi.09.01.2013 11:30;74982,6
Mi.09.01.2013 11:45;74417,2
Mi.09.01.2013 12:00;75545,8
Mi.09.01.2013 12:15;75136,6
Mi.09.01.2013 12:30;73816,6
Mi.09.01.2013 12:45;73339,2
Mi.09.01.2013 13:00;71649,6
Mi.09.01.2013 13:15;70268
Mi.09.01.2013 13:30;68723,6
Mi.09.01.2013 13:45;70815,8
Mi.09.01.2013 14:00;69643,2
Mi.09.01.2013 14:15;70536,4
Mi.09.01.2013 14:30;69962,2
Mi.09.01.2013 14:45;70741
Mi.09.01.2013 15:00;61987,2
Mi.09.01.2013 15:15;62233,6
Mi.09.01.2013 15:30;62394,2
Mi.09.01.2013 15:45;63111,4
Mi.09.01.2013 16:00;66299,2
Mi.09.01.2013 16:15;69889,6
Mi.09.01.2013 16:30;71977,4
Mi.09.01.2013 16:45;70833,4
Mi.09.01.2013 17:00;73871,6
Mi.09.01.2013 17:15;73350,2
Mi.09.01.2013 17:30;73011,4
Mi.09.01.2013 17:45;72100,6
Mi.09.01.2013 18:00;69535,4
Mi.09.01.2013 18:15;64286,2
Mi.09.01.2013 18:30;63993,6
Mi.09.01.2013 18:45;67139,6
Mi.09.01.2013 19:00;68296,8
Mi.09.01.2013 19:15;68591,6
Mi.09.01.2013 19:30;68376
Mi.09.01.2013 19:45;64112,4
Mi.09.01.2013 20:00;62238
Mi.09.01.2013 20:15;58823,6
Mi.09.01.2013 20:30;55877,8
Mi.09.01.2013 20:45;58788,4
Mi.09.01.2013 21:00;56606
Mi.09.01.2013 21:15;55303,6
Mi.09.01.2013 21:30;51499,8
Mi.09.01.2013 21:45;52951,8
Mi.09.01.2013 22:00;53750,4
Mi.09.01.2013 22:15;55363
Mi.09.01.2013 22:30;50391
Mi.09.01.2013 22:45;48745,4
Mi.09.01.2013 23:00;47302,2
Mi.09.01.2013 23:15;41043,2
Mi.09.01.2013 23:30;36557,4
Mi.09.01.2013 23:45;36883
Do.10.01.2013 00:00;37290
Do.10.01.2013 00:15;32874,6
Do.10.01.2013 00:30;30813,2
Do.10.01.2013 00:45;31427
Do.10.01.2013 01:00;31596,4
Do.10.01.2013 01:15;30091,6
Do.10.01.2013 01:30;23370,6
Do.10.01.2013 01:45;23256,2
Do.10.01.2013 02:00;19943
Do.10.01.2013 02:15;20114,6
Do.10.01.2013 02:30;28936,6
Do.10.01.2013 02:45;26382,4
Do.10.01.2013 03:00;24197,8
Do.10.01.2013 03:15;26969,8
Do.10.01.2013 03:30;28811,2
Do.10.01.2013 03:45;32186
Do.10.01.2013 04:00;31226,8
Do.10.01.2013 04:15;32447,8
Do.10.01.2013 04:30;34067
Do.10.01.2013 04:45;36592,6
Do.10.01.2013 05:00;41217